Location: Unspecified
(51.5147°N, 7.4673°E)
Time: 08:33:51
(UTC+01:00)

Explorer 7 - Pass Details

Date: 23 February 2026
Orbit: 430 x 542 km, 50.2° (Epoch: 7 March)

Event Time Altitude Azimuth Distance (km) Brightness Sun altitude
Rises 16:57:42 0° 274° (W) 2,451 11.3 8.2°
Reaches altitude 10° 16:59:48 10° 271° (W) 1,594 10.5 7.9°
Maximum altitude 17:03:22 67° 189° (S) 510 7.0 7.4°
Drops below altitude 10° 17:07:05 10° 107° (ESE) 1,656 8.9 6.8°
Sets 17:09:18 0° 104° (ESE) 2,558 9.8 6.5°
